Location: Marshall
(39.8477°N, 87.1868°W)
Time: 03:37:08
(UTC+00:00)

Envisat - Pass Details

Date: 12 May 2026
Orbit: 761 x 763 km, 98.4° (Epoch: 9 June)

Event Time Altitude Azimuth Distance (km) Brightness Sun altitude
Rises 09:09:19 0° 4° (N) 3,232 6.9 -15.0°
Reaches altitude 10° 09:11:47 10° 356° (N) 2,301 6.0 -14.6°
Maximum altitude 09:16:22 36° 291° (WNW) 1,201 3.8 -13.9°
Enters shadow 09:19:14 20° 237° (WSW) 1,720 4.2 -13.5°
